Temp
58 58 58 58 57 57 57 57 57 57 58 58 58 58 59 58 58 68 66 75 74 69 66 82 82 83 84 82 83 83 74 71 74 74 76 76 72 78 78 74 76 75 77 78 77
57 57 57 57 56 56 57 56 56 56 57 58 58 58 58 58 61 64 74 66 66 67 79 78 78 80 80 80 81 79 73 75 82 82 77 75 77 74 73 71 70 71 76 77 77
56 57 57 57 56 56 56 55 56 56 57 57 57 58 57 60 59 73 68 65 66 70 83 82 82 80 77 80 77 78 73 79 78 81 82 77 77 79 76 71 73 64 66 71 75
55 55 56 56 56 56 56 55 55 55 56 56 57 57 58 62 58 77 67 67 66 79 80 78 78 74 74 72 79 72 76 78 79 77 79 76 80 74 77 73 78 71 69 70 68
55 55 55 55 55 55 55 55 55 55 55 55 56 57 58 58 66 77 66 68 75 77 77 76 74 75 71 76 75 74 75 73 74 77 78 77 74 72 70 75 71 71 71 68 66
55 55 55 55 54 55 55 54 54 54 54 55 55 56 55 51 74 76 77 76 78 77 77 77 76 78 76 75 74 76 74 73 74 74 74 72 69 72 66 68 68 69 68 68 66
54 54 54 55 54 54 54 54 53 54 54 55 56 58 54 61 76 74 75 76 78 78 74 79 79 76 76 69 73 73 68 70 71 72 69 75 65 68 66 65 61 61 63 62 60
54 54 53 53 54 53 53 53 53 54 55 55 57 61 57 72 75 73 77 74 76 78 77 80 78 76 75 74 71 69 71 64 68 70 68 70 65 66 68 60 57 59 59 60 59
54 54 53 53 53 53 52 53 53 54 57 57 59 58 59 69 67 75 77 73 75 76 77 77 76 72 71 67 64 67 61 64 61 70 68 68 67 67 70 63 59 58 59 61 63
53 53 53 53 53 52 52 53 56 56 61 64 64 53 63 64 69 72 77 77 72 72 70 71 71 66 68 66 56 59 61 65 63 65 68 66 67 66 66 62 62 60 62 64 67
53 53 52 53 53 52 53 62 59 55 58 57 57 58 61 68 71 70 74 73 73 71 63 67 62 59 64 67 70 68 64 62 68 69 66 66 67 65 66 63 64 61 66 68 69
52 52 53 52 52 51 57 54 49 50 42 57 58 59 63 65 58 68 75 67 65 60 66 60 56 67 70 68 66 64 63 63 64 63 65 67 65 67 66 66 67 67 69 69 69
52 52 52 52 51 53 51 51 57 55 41 52 58 58 61 63 59 66 70 69 63 60 60 57 62 68 64 62 60 62 61 62 59 61 66 64 62 62 65 67 69 70 71 71 69
52 52 51 51 51 53 51 55 57 51 44 50 52 57 60 63 57 71 73 70 64 59 60 61 63 62 60 60 63 57 67 65 62 57 53 64 52 60 64 62 64 66 68 71 70
51 51 51 51 50 48 53 56 56 50 28 52 54 66 62 59 63 64 74 69 61 60 59 57 59 57 58 61 64 61 66 63 61 59 60 57 54 64 66 60 63 66 68 70 71
51 51 50 52 52 54 55 54 52 38 27 45 55 53 53 56 59 63 64 71 71 62 61 63 65 65 64 66 66 68 62 62 62 60 46 57 55 57 60 62 66 70 70 70 70
50 50 51 54 48 55 54 51 37 28 47 42 45 51 50 51 54 58 57 56 55 48 50 57 57 64 65 60 64 63 57 46 43 42 42 60 54 57 67 69 70 71 72 71 71
50 48 51 55 56 53 52 45 26 36 39 48 47 49 46 52 53 55 55 53 60 59 55 49 44 58 62 61 57 58 57 49 38 42 47 53 46 56 69 73 75 76 76 74 71
50 54 55 53 54 53 48 30 31 38 42 42 46 44 46 49 50 53 53 54 59 61 52 50 51 64 63 65 65 56 53 64 52 51 49 53 56 63 67 70 72 71 72 73 70
49 50 51 54 52 51 41 32 39 43 46 45 37 42 39 44 45 49 51 57 57 62 65 56 48 59 61 65 66 62 65 51 53 35 38 50 53 52 61 64 68 70 69 71 70
50 48 52 55 53 47 32 37 40 47 47 42 39 39 41 41 44 44 49 57 60 60 62 60 54 53 60 55 56 56 55 57 57 53 43 42 48 64 65 67 67 69 71 70 69
47 37 53 54 43 39 34 35 38 42 47 44 45 44 41 41 41 43 44 51 55 57 53 60 55 47 52 63 67 63 59 58 43 40 50 49 48 66 68 68 70 71 71 72 71
39 42 54 52 31 31 38 38 39 39 39 41 40 41 44 39 35 44 45 53 53 54 54 58 50 43 46 56 61 58 60 60 59 55 46 41 47 63 64 66 67 70 70 69 68
42 31 40 46 42 35 31 35 35 42 39 41 35 42 41 41 43 39 42 49 51 52 49 53 53 48 43 49 56 51 57 60 57 48 49 51 55 59 63 65 67 68 69 68 67
39 30 31 30 34 38 38 36 33 33 40 42 34 36 33 32 39 37 38 40 50 49 53 53 46 51 54 58 58 56 56 57 55 56 50 56 57 64 67 68 69 68 67 65 64
33 32 37 39 39 37 36 34 32 34 35 36 35 37 38 33 32 30 35 33 37 44 44 49 45 51 41 54 55 54 58 58 59 59 60 61 59 71 73 73 67 66 65 64 64
42 41 34 35 37 35 33 31 32 36 39 40 38 37 37 38 42 43 44 41 35 34 37 42 43 44 39 50 51 44 53 58 59 63 62 56 64 65 64 66 66 66 66 66 65
MSLP
1021.82 1021.38 1021.00 1020.62 1020.28 1019.97 1019.66 1019.28 1018.98 1018.54 1017.97 1017.53 1017.08 1016.78 1016.30 1015.91 1015.21 1013.96 1012.29 1010.66 1010.62 1011.08 1011.35 1010.19 1010.06 1009.73 1009.49 1008.48 1008.36 1007.70 1005.93 1004.64 1004.71 1005.21 1005.95 1008.44 1009.22 1010.11 1010.95 1011.40 1011.91 1012.64 1012.54 1013.69 1015.33
1022.08 1021.69 1021.29 1020.93 1020.54 1020.08 1019.65 1019.22 1018.80 1018.42 1017.91 1017.42 1017.00 1016.60 1016.06 1015.68 1014.46 1012.35 1010.34 1010.72 1010.80 1010.77 1010.38 1009.54 1009.08 1009.07 1008.47 1007.85 1007.74 1006.73 1005.48 1004.52 1004.70 1005.34 1006.41 1008.18 1008.64 1010.03 1010.89 1011.56 1012.19 1012.80 1013.51 1014.74 1015.78
1022.23 1021.72 1021.32 1020.95 1020.54 1020.04 1019.58 1019.11 1018.62 1018.22 1017.72 1017.35 1016.92 1016.54 1015.96 1015.56 1013.57 1009.43 1010.00 1010.38 1010.66 1010.61 1009.82 1009.41 1008.84 1008.50 1007.74 1007.39 1007.19 1006.50 1005.33 1005.07 1005.88 1006.26 1006.74 1007.72 1008.47 1009.57 1009.85 1010.85 1011.93 1013.30 1014.46 1015.38 1016.05
1022.18 1021.79 1021.27 1020.83 1020.28 1019.76 1019.32 1018.89 1018.44 1017.94 1017.54 1017.28 1016.91 1016.34 1015.73 1014.85 1011.47 1008.99 1009.51 1009.62 1010.28 1010.11 1009.76 1009.27 1008.66 1008.01 1007.32 1006.85 1006.86 1006.49 1006.29 1006.28 1006.53 1007.41 1007.20 1007.74 1008.52 1009.57 1009.96 1011.26 1012.14 1014.03 1015.32 1015.98 1016.86
1022.11 1021.70 1021.22 1020.76 1020.20 1019.60 1019.09 1018.61 1018.10 1017.58 1017.17 1016.89 1016.61 1016.29 1015.35 1013.40 1010.03 1009.18 1009.35 1009.59 1009.89 1009.98 1009.26 1008.78 1008.07 1007.45 1006.92 1006.49 1007.03 1006.52 1006.50 1007.26 1007.78 1007.89 1007.86 1008.59 1009.17 1010.11 1011.37 1012.23 1013.76 1014.91 1015.72 1016.80 1017.68
1021.99 1021.52 1021.03 1020.52 1020.00 1019.25 1018.67 1018.09 1017.48 1016.95 1016.58 1016.29 1016.22 1016.18 1015.22 1012.32 1009.51 1009.36 1009.10 1009.45 1009.22 1009.34 1009.11 1008.70 1007.73 1007.55 1006.90 1006.64 1006.66 1006.86 1007.13 1007.48 1008.13 1008.61 1009.02 1009.07 1010.24 1010.95 1012.99 1013.73 1014.57 1015.55 1016.16 1017.02 1017.95
1022.09 1021.48 1020.84 1020.22 1019.73 1019.01 1018.22 1017.40 1016.82 1016.27 1015.80 1015.56 1015.49 1015.52 1014.07 1010.58 1009.55 1009.62 1009.44 1009.04 1009.34 1008.96 1008.88 1008.58 1008.27 1007.82 1007.19 1007.27 1007.80 1007.54 1007.53 1008.02 1008.26 1008.92 1009.48 1009.54 1010.71 1010.98 1013.44 1014.57 1015.68 1016.67 1017.14 1017.97 1018.65
1022.07 1021.40 1020.78 1020.14 1019.37 1018.74 1017.76 1016.76 1015.94 1015.31 1014.86 1014.60 1014.55 1014.43 1011.53 1009.74 1009.76 1009.54 1009.24 1009.17 1009.60 1009.28 1009.05 1008.77 1008.69 1007.93 1007.20 1007.67 1007.74 1007.41 1007.25 1007.24 1008.45 1008.95 1009.76 1009.95 1009.36 1011.96 1013.73 1014.98 1016.12 1017.01 1017.82 1018.33 1019.18
1021.92 1021.21 1020.53 1019.77 1018.96 1018.12 1017.13 1015.87 1015.13 1014.69 1014.16 1014.17 1014.06 1013.24 1010.05 1009.74 1009.36 1008.71 1008.80 1008.47 1008.99 1009.23 1009.04 1008.95 1008.61 1007.74 1007.91 1006.97 1006.97 1006.70 1005.84 1006.43 1008.22 1008.75 1009.19 1009.79 1009.21 1011.65 1013.41 1014.85 1015.86 1016.89 1017.50 1018.00 1018.80
1021.78 1021.10 1020.28 1019.53 1018.71 1017.71 1016.47 1015.10 1014.62 1014.53 1014.02 1013.66 1013.21 1012.88 1009.75 1008.47 1008.53 1008.40 1008.49 1008.17 1008.26 1008.60 1008.59 1008.52 1008.00 1007.51 1006.84 1005.90 1004.80 1005.31 1005.46 1006.09 1006.86 1008.70 1008.79 1009.15 1009.41 1011.61 1013.15 1014.47 1015.29 1016.29 1016.79 1017.19 1017.68
1021.74 1020.92 1020.08 1019.27 1018.51 1017.72 1016.28 1014.29 1014.21 1013.73 1013.11 1011.45 1010.95 1010.10 1009.36 1009.06 1008.72 1008.10 1008.15 1007.96 1007.84 1007.71 1007.17 1007.56 1007.10 1005.73 1005.68 1005.63 1004.97 1005.09 1005.71 1006.22 1006.55 1007.90 1008.47 1008.59 1009.47 1011.15 1012.65 1013.97 1014.58 1015.48 1015.75 1016.22 1016.88
1021.86 1021.05 1020.10 1019.09 1018.44 1017.74 1016.33 1015.28 1016.30 1016.65 1013.95 1011.30 1010.69 1010.17 1009.65 1009.71 1008.39 1007.43 1007.72 1007.19 1006.98 1006.46 1006.66 1007.49 1006.06 1005.69 1005.77 1005.90 1005.79 1005.96 1005.74 1006.00 1007.34 1008.78 1008.73 1008.47 1008.93 1010.64 1011.91 1012.79 1013.61 1014.27 1014.68 1015.30 1016.32
1021.78 1021.05 1020.27 1019.27 1018.38 1017.56 1017.08 1016.69 1016.90 1016.61 1014.57 1010.67 1009.78 1009.06 1008.68 1009.17 1007.78 1006.41 1007.03 1006.33 1006.20 1006.07 1006.04 1005.83 1005.49 1005.87 1006.20 1006.16 1006.06 1006.00 1005.73 1005.97 1007.35 1008.79 1008.92 1008.66 1008.85 1010.08 1011.22 1012.17 1012.92 1013.43 1013.97 1014.54 1015.39
1021.65 1020.90 1020.18 1019.26 1018.08 1017.58 1016.83 1016.95 1016.72 1016.89 1013.64 1009.95 1009.03 1008.25 1008.52 1008.14 1007.08 1006.43 1006.39 1005.82 1005.75 1005.58 1006.34 1005.93 1006.24 1005.99 1006.13 1005.80 1005.97 1005.68 1006.09 1006.42 1007.24 1008.14 1007.47 1008.48 1007.37 1008.56 1009.76 1010.99 1012.10 1012.77 1013.24 1013.73 1014.77
1021.43 1020.77 1019.99 1019.50 1018.45 1017.53 1017.07 1017.07 1016.68 1016.44 1012.65 1009.59 1008.40 1008.19 1007.97 1007.40 1006.05 1005.50 1005.92 1005.71 1005.11 1005.32 1006.07 1005.21 1005.67 1006.01 1005.51 1005.23 1005.82 1005.47 1006.32 1006.82 1007.48 1007.59 1007.15 1007.95 1007.53 1005.76 1007.78 1009.26 1010.35 1011.15 1012.11 1013.03 1014.08
1021.03 1020.17 1019.49 1018.50 1018.32 1017.61 1017.41 1017.08 1016.20 1014.31 1011.33 1009.32 1008.28 1007.86 1007.66 1007.32 1006.37 1005.81 1005.53 1005.64 1005.36 1005.44 1005.85 1005.01 1005.96 1005.66 1005.14 1005.31 1005.74 1006.02 1006.71 1007.20 1007.52 1007.31 1006.96 1006.76 1007.23 1005.74 1006.39 1007.45 1008.31 1009.28 1010.60 1011.90 1013.15
1020.47 1019.59 1018.89 1018.42 1017.75 1017.62 1017.31 1016.12 1014.67 1012.90 1011.18 1010.08 1009.05 1008.45 1007.77 1006.82 1006.20 1005.66 1005.20 1004.79 1004.15 1004.61 1004.56 1005.09 1005.53 1005.54 1005.57 1005.27 1005.99 1006.09 1006.18 1006.46 1006.90 1006.56 1006.36 1006.39 1006.30 1005.34 1005.13 1006.26 1006.80 1007.48 1008.66 1010.27 1012.17
1020.04 1019.29 1018.77 1018.15 1017.78 1017.49 1016.73 1015.09 1013.97 1012.90 1011.78 1011.07 1010.01 1008.70 1007.62 1006.65 1005.95 1005.44 1004.80 1004.27 1004.21 1003.75 1003.48 1003.92 1004.59 1004.57 1004.79 1004.30 1004.22 1004.94 1005.14 1004.16 1004.76 1005.13 1005.82 1007.05 1005.52 1004.95 1005.16 1005.64 1005.94 1006.38 1007.47 1009.34 1011.20
1019.81 1018.84 1017.94 1017.93 1017.74 1017.20 1016.01 1014.72 1013.69 1013.12 1012.79 1011.77 1010.19 1008.86 1007.69 1007.28 1006.61 1005.44 1004.76 1003.94 1003.67 1003.46 1003.14 1003.09 1002.96 1003.29 1004.11 1004.14 1004.13 1004.47 1003.97 1003.92 1004.46 1005.33 1005.04 1005.18 1005.67 1005.52 1005.28 1004.94 1005.47 1006.22 1007.06 1008.07 1010.17
1019.97 1018.85 1018.02 1018.16 1017.98 1016.92 1016.09 1015.11 1014.26 1014.29 1013.45 1012.43 1011.13 1010.41 1008.98 1008.21 1007.18 1005.77 1004.83 1003.97 1003.57 1003.69 1003.76 1003.51 1003.19 1003.31 1003.90 1004.14 1003.65 1003.16 1003.99 1004.20 1004.39 1004.96 1004.69 1004.14 1004.11 1004.19 1004.04 1004.22 1004.75 1005.45 1006.49 1007.47 1009.45
1019.96 1018.31 1018.34 1018.19 1017.79 1016.73 1016.29 1015.67 1015.35 1014.77 1014.28 1013.35 1012.30 1011.64 1010.59 1009.60 1008.76 1007.17 1005.24 1004.78 1004.38 1004.14 1004.45 1003.90 1003.41 1003.01 1003.50 1002.51 1001.93 1003.24 1002.93 1003.60 1004.24 1004.10 1003.98 1003.74 1003.79 1003.70 1003.35 1003.65 1004.17 1004.95 1005.96 1007.17 1008.66
1020.29 1018.95 1018.93 1018.32 1017.43 1017.88 1017.38 1017.57 1017.27 1015.77 1014.79 1014.04 1013.42 1012.63 1011.97 1011.32 1009.78 1008.44 1007.20 1006.23 1006.42 1005.18 1004.31 1003.89 1003.57 1002.92 1002.06 1002.35 1002.29 1002.45 1002.33 1003.00 1003.12 1003.48 1004.10 1003.98 1003.72 1003.61 1003.42 1003.70 1004.03 1004.55 1005.67 1006.97 1008.42
1021.22 1020.27 1019.28 1018.39 1018.39 1018.56 1018.21 1017.70 1017.28 1016.62 1015.98 1015.14 1014.36 1014.07 1013.32 1012.56 1011.52 1009.63 1008.76 1007.84 1007.57 1006.36 1004.95 1004.46 1003.80 1003.02 1002.60 1002.45 1002.12 1001.29 1001.91 1002.32 1003.13 1003.90 1003.66 1003.71 1003.60 1003.89 1004.00 1003.97 1004.29 1004.53 1005.69 1007.02 1008.39
1021.85 1021.16 1020.62 1019.87 1020.12 1019.59 1019.17 1018.31 1017.64 1017.20 1016.86 1016.51 1016.42 1014.86 1014.21 1012.76 1012.43 1011.22 1010.26 1009.13 1008.83 1007.78 1006.63 1005.38 1004.06 1003.07 1001.59 1000.90 1001.73 1001.93 1001.55 1001.87 1002.49 1002.47 1002.70 1002.47 1002.92 1003.31 1003.30 1003.49 1003.99 1004.66 1005.82 1007.02 1008.27
1023.06 1023.25 1023.58 1021.42 1020.63 1019.97 1019.49 1019.12 1018.45 1017.92 1017.40 1016.81 1016.59 1016.35 1015.69 1014.22 1012.92 1012.42 1012.31 1011.37 1009.59 1009.00 1007.27 1006.12 1004.59 1003.52 1002.73 1001.73 1001.20 1001.02 1001.16 1001.41 1001.43 1001.38 1001.54 1001.64 1001.73 1001.63 1002.32 1002.83 1003.47 1004.49 1005.88 1007.04 1008.11
1024.16 1024.25 1023.64 1022.20 1021.51 1020.48 1020.13 1019.71 1019.29 1018.96 1018.35 1017.18 1017.11 1016.62 1015.93 1015.24 1015.07 1014.39 1013.90 1013.47 1011.92 1010.59 1009.29 1007.86 1005.47 1004.27 1003.45 1002.78 1001.97 1000.80 1000.53 1000.70 1000.49 1000.78 1000.68 1000.71 1000.70 1000.99 1001.58 1002.54 1003.59 1004.35 1005.49 1006.55 1007.57
1025.46 1025.27 1024.81 1023.01 1021.82 1021.07 1020.89 1020.86 1020.24 1019.62 1018.59 1018.13 1017.62 1016.80 1015.83 1015.51 1015.42 1014.56 1014.19 1014.06 1013.83 1013.04 1011.57 1009.54 1007.48 1005.43 1003.77 1003.15 1002.23 1001.27 1000.37 999.86 999.87 999.87 999.73 999.59 999.97 1001.27 1001.87 1002.30 1002.98 1003.79 1004.66 1005.46 1006.52
Wind_Speed
20 19 20 20 19 18 18 18 18 19 19 19 20 19 18 18 18 11 13 6 8 7 8 7 8 10 9 9 7 4 9 12 14 13 11 16 12 11 4 10 8 4 5 17 18
19 19 19 18 18 18 17 18 18 19 19 19 20 20 19 17 17 15 11 2 9 10 12 11 13 12 13 12 8 11 12 13 8 10 10 19 15 16 11 12 8 8 11 20 18
18 19 18 18 19 20 20 19 19 20 20 20 20 20 19 18 10 5 5 12 11 10 11 8 8 13 15 10 9 11 11 4 5 8 11 20 15 14 13 15 13 17 19 18 16
18 19 19 20 20 20 20 20 20 20 20 20 18 18 20 8 5 4 8 11 14 10 12 11 13 14 16 13 12 12 6 6 8 7 14 17 14 11 10 7 13 20 19 16 14
18 19 19 21 21 22 21 21 21 21 20 18 17 16 11 8 10 5 4 14 15 13 14 14 14 14 15 14 13 14 11 5 5 11 13 14 13 9 7 10 18 20 20 18 14
22 21 21 22 23 24 24 25 24 23 21 19 15 12 6 9 3 1 9 13 13 14 11 11 10 10 10 11 17 8 10 10 10 12 11 15 12 13 7 16 17 17 17 16 15
23 23 24 24 25 26 28 28 28 25 22 18 15 8 8 14 1 3 9 8 9 10 10 9 5 12 9 10 6 13 11 10 12 14 8 12 12 7 15 10 15 14 12 15 14
23 23 24 26 26 27 29 29 28 22 17 11 7 11 10 4 5 10 9 8 6 6 6 7 4 5 8 11 11 13 14 16 12 14 8 9 16 11 16 14 13 14 13 13 11
24 25 25 25 26 27 30 29 24 5 2 11 10 8 6 5 7 12 13 11 11 9 5 5 7 7 9 15 13 15 15 21 12 12 10 14 10 16 15 14 14 13 12 13 13
25 26 27 26 26 30 30 25 6 7 7 5 1 7 7 2 1 4 12 12 11 14 9 9 10 12 13 15 17 19 17 18 14 14 14 16 5 15 14 15 16 14 15 14 14
26 27 28 27 27 31 20 7 6 8 6 7 3 7 1 7 5 8 13 14 13 17 15 16 13 19 20 19 14 15 18 16 16 13 17 17 12 13 15 14 17 16 16 16 15
24 25 27 29 28 26 12 4 5 6 10 11 16 19 19 8 5 10 15 16 17 20 18 10 19 18 17 17 13 14 20 18 7 8 14 14 13 12 15 16 16 17 17 17 16
24 24 24 27 28 10 8 5 7 6 7 6 7 10 9 13 7 13 20 20 19 21 22 17 12 15 13 16 17 16 18 16 14 12 14 9 18 14 14 13 14 15 15 16 17
25 24 24 25 12 8 4 6 10 4 7 3 3 2 7 8 9 15 18 21 14 22 19 16 10 17 19 20 18 17 15 13 14 17 14 18 13 21 18 19 17 18 19 18 17
25 27 24 18 10 6 6 10 11 5 4 4 5 3 2 13 3 16 17 21 19 15 14 14 17 17 23 22 21 15 15 15 15 17 13 15 14 13 23 18 21 22 22 19 18
28 28 23 3 5 7 10 14 5 6 3 2 4 3 2 9 10 4 15 21 17 16 18 15 6 18 15 19 19 10 14 12 12 14 12 14 17 17 15 22 24 23 23 23 21
29 27 9 4 7 10 10 5 5 5 5 5 7 8 9 6 9 10 19 25 18 19 17 18 13 10 12 17 17 19 20 9 11 11 9 18 15 16 15 20 24 23 25 25 22
29 14 4 5 8 7 5 6 6 3 4 7 9 13 4 3 8 18 17 22 27 21 15 18 19 20 17 22 15 26 23 10 18 15 15 8 10 10 15 13 16 18 20 21 22
22 3 7 10 7 5 6 2 2 3 6 10 12 6 0 2 5 16 19 20 24 22 16 18 19 21 20 15 17 24 23 20 4 5 12 12 10 5 9 16 17 16 15 22 24
6 4 10 14 6 5 3 2 2 6 9 8 5 5 6 8 6 6 15 14 22 23 18 6 13 13 16 18 21 23 19 19 12 10 11 9 15 9 18 21 18 18 19 20 21
4 3 10 14 4 2 1 3 6 7 10 7 4 7 7 8 11 6 4 9 15 20 19 12 8 12 21 22 22 12 20 17 15 12 14 9 7 11 14 12 19 19 19 20 22
5 3 10 10 2 2 4 7 8 11 6 4 7 8 8 9 8 5 4 7 11 14 27 21 9 8 27 18 21 22 23 25 12 16 9 10 4 5 6 4 10 15 16 18 19
4 4 5 7 4 6 4 6 3 9 9 8 7 10 10 5 7 7 7 8 12 8 10 22 13 13 8 15 14 24 23 25 20 13 17 9 6 5 6 6 7 11 14 15 17
4 4 5 5 5 5 7 8 10 5 2 6 5 5 11 8 7 9 13 6 17 12 17 9 18 22 16 16 14 19 24 22 24 14 15 17 14 9 10 9 9 11 13 16 18
5 4 3 5 6 8 4 7 10 11 5 6 2 11 10 5 9 5 9 13 9 13 11 5 19 19 24 14 12 18 23 25 27 24 21 16 21 16 15 14 12 12 14 16 19
3 5 6 5 7 8 7 8 9 12 7 6 11 14 11 8 6 11 12 4 6 13 11 11 9 17 16 21 14 18 20 25 27 26 25 21 19 17 15 11 13 16 18 19 20
4 2 3 5 7 7 5 7 11 11 6 8 14 14 11 9 18 20 16 13 10 7 11 8 8 5 16 20 22 19 17 20 25 25 24 21 13 13 14 15 16 18 20 21 22
Wind_Direction
355 352 353 350 351 348 344 340 337 333 334 334 334 330 326 322 307 265 246 248 181 223 207 172 195 201 211 195 206 216 225 215 210 199 160 154 170 191 106 147 166 142 178 147 152
355 352 348 346 343 339 338 336 334 328 327 330 329 326 325 325 304 266 245 245 220 176 199 194 190 187 204 203 191 215 225 221 223 191 162 169 181 163 173 161 160 131 111 139 151
351 346 344 339 337 332 331 329 322 321 322 325 325 322 321 315 278 218 126 208 202 193 225 218 216 195 215 199 182 196 225 213 180 183 175 172 185 172 184 183 161 152 140 146 151
350 349 346 340 336 329 324 319 315 314 315 316 318 321 318 279 263 101 320 202 180 198 195 195 195 196 211 200 181 199 199 208 145 173 165 173 157 190 189 69 132 138 140 146 124
351 345 347 338 336 329 325 319 313 309 308 308 313 319 319 234 254 23 91 144 164 185 192 192 195 203 211 200 185 231 171 149 189 172 172 143 171 125 117 132 120 136 141 139 131
344 344 338 334 331 327 323 317 311 306 301 299 299 303 258 249 55 10 140 153 165 183 192 206 211 208 211 200 202 181 171 135 157 151 158 156 138 155 124 128 141 152 146 136 133
346 342 337 334 331 326 321 315 308 299 292 287 279 228 244 251 208 51 172 172 180 191 192 208 232 197 159 158 146 158 155 148 164 167 156 148 157 173 133 139 134 139 145 136 131
343 339 340 332 329 326 319 311 305 296 284 266 211 190 253 195 253 239 199 175 194 202 235 185 202 205 230 114 156 180 186 181 162 174 154 233 172 145 146 144 142 146 149 136 144
344 340 337 335 331 328 321 314 309 282 282 144 161 223 248 132 221 219 208 187 171 183 178 155 202 183 167 175 171 191 195 203 157 204 156 212 132 148 160 157 151 155 152 150 151
342 340 338 335 334 332 325 310 286 190 158 192 201 221 231 178 195 201 198 196 170 166 154 183 192 191 198 199 196 190 225 201 184 179 196 190 170 156 170 167 160 162 165 164 167
342 339 336 335 335 333 328 287 228 188 224 253 154 290 276 340 220 197 180 187 184 184 183 189 202 205 195 210 227 198 213 193 204 156 197 194 180 175 170 186 170 174 175 176 173
341 336 334 333 333 332 305 41 48 320 299 253 247 256 261 293 273 201 183 186 188 189 188 177 217 203 208 208 214 204 208 201 157 177 219 191 200 181 183 192 188 184 184 179 169
341 338 335 329 324 306 328 45 327 307 265 278 238 250 234 199 239 200 194 198 196 199 192 203 198 210 200 191 200 208 212 193 184 176 216 194 213 198 192 197 198 199 197 192 185
342 339 333 332 294 337 260 330 321 259 273 111 180 213 192 213 241 220 201 192 199 206 201 225 151 197 197 200 202 199 211 195 194 185 201 205 219 198 193 201 199 202 206 201 188
342 336 331 325 296 289 343 320 311 221 268 27 112 57 161 210 40 189 195 205 204 198 187 193 188 193 203 200 198 220 183 193 194 209 199 193 242 206 197 197 206 209 206 206 197
339 334 331 187 252 297 315 306 245 236 236 65 60 19 167 216 244 133 182 211 222 198 219 215 221 208 210 203 194 195 180 187 207 220 221 214 217 225 191 205 211 210 206 203 199
335 333 332 303 324 320 306 262 229 239 343 24 343 332 320 250 218 220 195 194 192 193 199 207 193 196 222 188 191 185 168 166 198 208 224 215 208 234 177 207 216 209 206 200 194
335 329 3 355 328 306 270 230 237 18 356 347 323 306 263 318 218 205 207 202 211 208 189 197 207 191 189 204 183 196 192 197 204 204 206 155 230 225 225 216 218 218 209 193 193
329 344 3 359 341 313 275 222 350 21 6 334 314 295 167 7 290 208 220 219 207 210 228 203 214 185 182 199 190 195 210 210 222 335 216 184 222 263 218 214 199 202 202 194 190
324 306 21 346 333 290 250 294 326 359 338 332 321 354 319 359 304 225 208 220 222 208 227 205 222 186 184 196 207 199 197 210 212 192 207 211 222 215 198 212 205 207 201 194 189
318 303 14 342 282 263 358 334 325 340 344 326 338 313 328 339 330 269 260 224 226 206 222 224 244 169 174 206 191 189 200 211 211 223 218 208 217 206 223 199 207 208 199 186 185
318 34 3 329 27 29 20 349 337 322 346 309 290 269 288 323 307 286 314 323 10 297 207 219 226 207 207 207 216 201 209 202 203 203 228 229 198 193 223 182 211 209 199 189 183
4 319 12 322 38 17 5 7 358 354 359 357 316 5 324 290 308 302 329 337 0 343 244 209 221 219 201 206 203 218 212 207 216 193 211 195 192 157 177 182 189 189 180 174 176
344 344 356 24 56 6 348 4 358 9 338 355 4 351 328 293 242 288 314 326 336 353 314 270 219 224 221 214 207 214 217 215 215 214 205 215 210 191 206 195 175 177 173 172 176
2 51 359 359 4 347 6 351 355 6 333 339 193 5 341 283 295 303 5 327 315 11 352 254 221 223 230 250 233 208 215 205 216 216 221 210 222 206 207 204 180 169 168 170 177
27 354 337 302 326 334 14 19 348 347 312 332 338 334 319 312 26 318 327 315 316 332 352 339 246 230 232 237 237 225 216 209 218 214 223 226 216 223 198 176 165 168 173 179 184
22 352 310 319 338 327 25 342 328 335 311 320 330 314 309 345 321 297 280 256 259 303 329 308 340 243 225 222 232 237 232 224 219 218 219 220 224 173 180 182 180 176 181 183 187